TimeMST,TemperatureF,Dew PointF,Humidity,Sea Level PressureIn,VisibilityMPH,Wind Direction,Wind SpeedMPH,Gust SpeedMPH,PrecipitationIn,Events,Conditions,WindDirDegrees,DateUTC
12:51 AM,30.9,10.9,43,29.97,10.0,East,8.1,-,N/A,,Clear,100,2013-01-08 07:51:00
1:51 AM,30.9,12.0,46,29.96,10.0,East,9.2,-,N/A,,Clear,100,2013-01-08 08:51:00
2:51 AM,30.0,12.0,47,29.97,10.0,East,6.9,-,N/A,,Clear,80,2013-01-08 09:51:00
3:51 AM,34.0,12.0,40,29.96,10.0,East,11.5,-,N/A,,Clear,90,2013-01-08 10:51:00
4:51 AM,35.1,12.0,39,29.97,10.0,East,9.2,-,N/A,,Clear,90,2013-01-08 11:51:00
5:51 AM,34.0,12.9,42,30.00,10.0,East,10.4,-,N/A,,Clear,100,2013-01-08 12:51:00
6:51 AM,33.1,12.0,42,30.02,10.0,East,10.4,-,N/A,,Clear,90,2013-01-08 13:51:00
7:51 AM,33.1,12.0,42,30.06,10.0,East,10.4,-,N/A,,Clear,90,2013-01-08 14:51:00
8:51 AM,39.2,12.2,33,30.12,10.0,East,9.2,-,N/A,,Clear,100,2013-01-08 15:51:00
9:51 AM,46.0,12.0,25,30.09,10.0,NE,6.9,-,N/A,,Clear,40,2013-01-08 16:51:00
10:11 AM,46.4,12.2,25,30.16,2.0,NNE,8.1,-,N/A,,Haze,20,2013-01-08 17:11:00
10:14 AM,46.4,12.2,25,30.16,1.5,North,9.2,-,N/A,,Haze,10,2013-01-08 17:14:00
10:21 AM,48.2,12.2,24,30.17,2.5,North,9.2,-,N/A,,Haze,10,2013-01-08 17:21:00
10:24 AM,48.2,12.2,24,30.17,4.0,NNE,10.4,-,N/A,,Haze,20,2013-01-08 17:24:00
10:51 AM,48.0,10.9,22,30.10,10.0,North,9.2,-,N/A,,Clear,10,2013-01-08 17:51:00
11:51 AM,52.0,10.0,19,30.07,10.0,North,10.4,-,N/A,,Clear,10,2013-01-08 18:51:00
12:51 PM,54.0,12.0,19,30.05,10.0,North,10.4,-,N/A,,Clear,10,2013-01-08 19:51:00
1:51 PM,55.9,12.9,18,30.04,10.0,NNE,9.2,16.1,N/A,,Clear,30,2013-01-08 20:51:00
2:51 PM,55.9,14.0,19,30.04,10.0,NE,11.5,-,N/A,,Clear,40,2013-01-08 21:51:00
3:51 PM,57.0,16.0,20,30.03,10.0,NNE,8.1,-,N/A,,Clear,30,2013-01-08 22:51:00
4:51 PM,55.9,18.0,23,30.04,10.0,NNE,12.7,-,N/A,,Clear,20,2013-01-08 23:51:00
5:51 PM,48.9,18.0,29,30.07,10.0,NE,9.2,-,N/A,,Clear,50,2013-01-09 00:51:00
6:51 PM,46.9,19.0,33,30.10,10.0,East,11.5,-,N/A,,Clear,100,2013-01-09 01:51:00
7:51 PM,45.0,19.9,37,30.13,10.0,ESE,10.4,-,N/A,,Clear,120,2013-01-09 02:51:00
8:51 PM,43.0,19.9,40,30.13,10.0,East,9.2,-,N/A,,Clear,100,2013-01-09 03:51:00
9:51 PM,39.0,19.9,46,30.14,10.0,ENE,6.9,-,N/A,,Clear,70,2013-01-09 04:51:00
10:51 PM,36.0,19.9,52,30.16,10.0,East,8.1,-,N/A,,Clear,80,2013-01-09 05:51:00
11:51 PM,37.9,21.0,51,30.15,10.0,East,6.9,-,N/A,,Clear,90,2013-01-09 06:51:00